Miscellaneous Local Product
Issued by NWS North Platte, NE

Home | Current Version | Previous Version | Text Only | Print | Product List | Glossary On
Versions: 1 2 3 4 5 6 7 8 9 10 11 12 13 14 15 16 17 18 19 20 21 22 23 24 25 26 27 28 29 30 31 32 33 34 35 36 37 38 39 40 41 42 43 44 45 46 47 48 49 50
869
AXUS43 KLBF 241510
MISLBF


WESTERN AND NORTH CENTRAL NEBRASKA HOURLY WEATHER ROUNDUP
NATIONAL WEATHER SERVICE NORTH PLATTE NE
1000 AM CDT FRI MAR 24 2017

NOTE: "FAIR" INDICATES FEW OR NO CLOUDS BELOW 12,000 FEET WITH NO
SIGNIFICANT WEATHER AND/OR OBSTRUCTIONS TO VISIBILITY.

NOTE: STATIONS NOT REPORTING VARIABLES SUCH AS SKY/WEATHER OR
PRESSURE ARE PROVIDED BY RAWS AND APRS NETWORKS AND ARE NOT UNDER
NATIONAL WEATHER SERVICE QUALITY CONTROL.

...OBSERVATIONS IN AND NEAR THE EASTERN PANHANDLE OF NEBRASKA...

CITY           SKY/WX    TMP DP  RH WIND       PRES   REMARKS
PINE RIDGE     CLOUDY    42  39  89 NW7       30.10R
CHADRON        CLOUDY    44  37  76 N7        30.12R
SIDNEY         CLOUDY    39  36  89 N26G37    29.99R WCI  28
CRESCENT LAKE    N/A     40  38  91 N21G33      N/A  WCI  30
$$

...OBSERVATIONS IN NORTHERN NEBRASKA AND FAR SOUTHERN SOUTH DAKOTA...

CITY           SKY/WX    TMP DP  RH WIND       PRES   REMARKS
WINNER         CLOUDY    43  36  76 N15       30.05R
VALENTINE      CLOUDY    42  35  76 N14G22    30.05R
THEDFORD       DRIZZLE   40  39  95 N17G23    30.01R WCI  32
AINSWORTH      CLOUDY    39  38  99 N20       30.01S WCI  29
O`NEILL        CLOUDY    38  38  97 N18G25    29.99R FOG     WCI  29
ORD            CLOUDY    40  36  86 N17G29    29.93R WCI  31
BROKEN BOW     CLOUDY    41  37  86 N22G33    29.93R
VALENTINE NWR    N/A     39  37  94 N13G25      N/A  WCI  31
HALSEY           N/A     39  38  99 N12G23      N/A  WCI  32
BUTTE            N/A     37  35  92 N16G26      N/A  WCI  27
CHAMBERS         N/A     39  38  97 N7          N/A  WCI  34
EWING            N/A     38  37  96 N9G20       N/A  WCI  31
$$

...OBSERVATIONS IN SOUTHWEST NEBRASKA AND FAR NORTHEAST COLORADO...

CITY           SKY/WX    TMP DP  RH WIND       PRES   REMARKS
WRAY           CLOUDY    41  41 100 N32G47    29.85R
HOLYOKE        LGT RAIN  43  39  87 N30G40    29.92R
IMPERIAL       CLOUDY    42  39  89 NE30G38   29.89R
OGALLALA       LGT RAIN  44  40  88 N29G37    29.91S
NORTH PLATTE   LGT RAIN  42  38  85 N29G39    29.88F FOG
MCCOOK         CLOUDY    43  40  89 N30G46    29.81R
LEXINGTON      LGT RAIN  40  38  89 N20G26    29.90R WCI  31
STAPLETON        N/A     39  37  94 E3G12       N/A
GOTHENBURG       N/A     40  36  86 N17         N/A  WCI  31
CALLAWAY         N/A     38  36  94 N17         N/A  WCI  28
$$

...OBSERVATIONS IN CENTRAL LINCOLN COUNTY AREA...

CITY           SKY/WX    TMP DP  RH WIND       PRES   REMARKS
N.P. AIRPORT   LGT RAIN  42  38  85 N29G39    29.88F FOG
N.P. DOWNTOWN    N/A     41  39  94 N20G36      N/A
N.P. SOUTHEAST   N/A     40  38  92 N16G31      N/A  WCI  31
N.P. HILLCREST   N/A     41  40  95 NE30G43     N/A
$$

...SOME OBSERVATIONS FROM AROUND THE REGION...

CITY           SKY/WX    TMP DP  RH WIND       PRES   REMARKS
DENVER         CLOUDY    38  36  92 N25G36    30.04R WCI  27
LIMON          FOG       32  32 100 N33G46    29.89R VSB 1/2 WCI  17
ASPEN          LGT SNOW  33  28  81 NW9G17    30.11R WCI  25
LARAMIE        CLOUDY    31  29  92 N8        30.14R WCI  23
GILLETTE       SUNNY     44  37  76 W5        30.12R
CHEYENNE       CLOUDY    35  31  85 N18G29    30.10R WCI  24
SCOTTSBLUFF    CLOUDY    44  35  70 N14       30.09R
GRAND ISLAND   LGT RAIN  42  42 100 N16       29.89R FOG
OMAHA          LGT RAIN  49  45  86 N14       29.86R FOG
SIOUX FALLS    CLOUDY    39  36  89 N16G23    29.99R WCI  30
PIERRE         MOSUNNY   40  34  79 NW3       30.09R
RAPID CITY     SUNNY     47  38  71 SW5       30.10R
BISMARCK       SUNNY     35  30  82 NE9       30.14R WCI  28
KANSAS CITY    LGT RAIN  69  43  38 S12G21    29.83R
HILL CITY      PTSUNNY   53  52  96 NE24G33   29.76R
WICHITA        PTSUNNY   66  52  60 S23G30    29.75R
DODGE CITY     SUNNY     56  39  53 SE16G22   29.70R
OKLAHOMA CITY  PTSUNNY   67  56  67 S18G31    29.77S
DALLAS         HVY RAIN  60  57  89 SW12      29.91R FOG
AMARILLO       CLOUDY    49  39  68 SW32G45   29.60S
$$




USA.gov is the U.S. government's official web portal to all federal, state and local government web resources and services.